CANX-5

导读

CANX-5是加拿大CANX纳卫星项目的一颗3U立方体纳卫星,于北京时间2014年6月30日发射入轨,尺寸为20cm³。它与CANX-4配对,专门用于验证空间编队飞行技术,是立方星技术演示验证任务的典型实践。作为低成本微纳卫星项目,CANX-5推动了小卫星编队技术发展,展现了商业器件在航天领域应用潜力。

Basic Information
目录编号:
40056
目录名称:
CANX-5
国际标识:
2014-034D
轨道中心:
EARTH
卫星名称:
CANX-5
卫星全名:
--
卫星状态:
在轨 (已飞行4450 天)
发射日期:
2014-06-30 UTC
国别 :
加拿大 (CA)
星等 :
--
Orbit Information
数据来源 国际轨道数据
星历时间: 2026-09-05T19:07:45+0800
6小时前
查看轨道信息
半长轴: 7003.049km
偏心率: 0.001394
轨道倾角: 98.299°
近地点辐角 110.807°
升交点赤经 126.725°
平近点角 249.463°
近地点: 615.149km
远地点: 634.675km
周期: 97.205分钟
每日圈数: 14.813989
Detailed Information
使用方式:
暂无
2D Orbit Map
3D Orbit Map
Orbit Altitude Analysis Chart
Orbit Inclination Analysis Chart
Orbit Comprehensive Analysis Chart
View Comprehensive Chart
Conjunction Data List
Event ID Objects TCA Miss Dist (km) Collision Risk Probability Collision Risk Index (CRI) Action
CDM_260907-083404-005606-777022
CANX-5 (40056)
2026-09-07T
08:34:25+0000
2.038 km
极远距离
1.575664E-6 低风险 0.39
CDM_260907-230404-005606-714422
CANX-5 (40056)
2026-09-07T
23:04:30+0000
2.678 km
极远距离
1.550483E-6 低风险 0.39